This is the latest recevied weather packets stored in our database for station/object XE2KK-10. If no packets are shown the sender has not sent any weather packets the latest 10 day(s).
| Time | Temp. | Humidity | Pressure | Rain* | Wind** | Luminosity | Snow |
|---|---|---|---|---|---|---|---|
| 1778081353 | 28.89° C | 66% | 1010.4 hPa | 0 mm | - | 634 W/m² | - |
| 1778081053 | 28.33° C | 68% | 1010.6 hPa | 0 mm | - | 600 W/m² | - |
| 1778080752 | 27.78° C | 70% | 1010.4 hPa | 0 mm | - | 416 W/m² | - |
| 1778080452 | 28.33° C | 69% | 1010.3 hPa | 0 mm | - | 266 W/m² | - |
| 1778080153 | 27.78° C | 71% | 1010.6 hPa | 0 mm | - | 352 W/m² | - |
| 1778079853 | 28.33° C | 69% | 1010.6 hPa | 0 mm | - | 490 W/m² | - |
| 1778079553 | 27.78° C | 71% | 1010.3 hPa | 0 mm | - | 511 W/m² | - |
| 1778079253 | 28.33° C | 71% | 1010.5 hPa | 0 mm | - | 434 W/m² | - |
| 1778078952 | 27.78° C | 73% | 1010.5 hPa | 0 mm | - | 471 W/m² | - |
| 1778078652 | 27.78° C | 74% | 1010.6 hPa | 0 mm | - | 444 W/m² | - |
| 1778078353 | 27.22° C | 75% | 1010.5 hPa | 0 mm | - | 429 W/m² | - |
| 1778078053 | 27.22° C | 75% | 1010.5 hPa | 0 mm | - | 407 W/m² | - |
| 1778077753 | 27.22° C | 76% | 1010.6 hPa | 0 mm | - | 370 W/m² | - |
| 1778077453 | 27.22° C | 75% | 1010.6 hPa | 0 mm | - | 356 W/m² | - |
| 1778077152 | 26.67° C | 77% | 1010.6 hPa | 0 mm | - | 341 W/m² | - |
| 1778076853 | 26.67° C | 76% | 1010.5 hPa | 0 mm | - | 319 W/m² | - |
| 1778076553 | 26.67° C | 77% | 1010.6 hPa | 0 mm | - | 297 W/m² | - |
| 1778076544 | 26.67° C | 78% | 1010.5 hPa | 0 mm | - | 269 W/m² | - |
| 1778076253 | 26.67° C | 78% | 1010.5 hPa | 0 mm | - | 269 W/m² | - |
| 1778075952 | 26.11° C | 79% | 1010.4 hPa | 0 mm | - | 223 W/m² | - |
| 1778075652 | 26.11° C | 80% | 1010.3 hPa | 0 mm | - | 202 W/m² | - |
| 1778075353 | 26.11° C | 79% | 1010.3 hPa | 0 mm | - | 180 W/m² | - |
| 1778075053 | 26.11° C | 79% | 1010.2 hPa | 0 mm | - | 189 W/m² | - |
| 1778074753 | 26.11° C | 78% | 1010.2 hPa | 0 mm | - | 184 W/m² | - |
| 1778074452 | 25.56° C | 79% | 1010.3 hPa | 0 mm | - | 167 W/m² | - |
* Rain latest hour (hover to see other rain measurements)
** Current wind speed in m/s (hover to see current wind gust speed)